Find Lyra-1

NORAD ID: 62664 Int'l Des: 2025-009 Owner: ECHOAU Country: AU operational
LEOCIRCULARRETROGRADESSO

リアルタイム位置

3D地球を読み込み中...

Lyra-1について

説明を読み込み中...

次回通過

Passes for default location (London). Set your location on the main map for personalized predictions.

高度履歴

Loading altitude history...

軌道要素

1 62664U 25009BH 26104.46939669 .00004705 00000-0 23607-3 0 9992
2 62664 97.4007 180.4370 0010181 62.1742 298.0522 15.17751716 68754
Epoch: Apr 14, 2026 • Age: 7 hours

現在のステータス

高度 519.6 km
速度 7.60 km/s
衛星直下点 -2.14°S, 118.39°W
打ち上げ日 Jan 14, 2025
運用期間 1.2 years
タイプ other

技術仕様

分類 Payload
質量 74.00 kg
乾燥質量 74.00 kg
総質量 74.00 kg
長さ 0.60 m
直径 0.50 m
スパン 2.00 m
形状 Box
製造者 ADIG
バスタイプ Corvus XL
フェーズステータス In Orbit
所有者/国 ECHOAU/AU

Most Searched